Time,TemperatureF,DewpointF,PressureIn,WindDirection,WindDirectionDegrees,WindSpeedMPH,WindSpeedGustMPH,Humidity,HourlyPrecipIn,Conditions,Clouds,dailyrainin,SoftwareType,DateUTC
2013-03-04 00:01:00,23.0,19.0,30.00,ENE,65,0.0,32.0,86,0.00,,,0.00,,2013-03-04 06:01:00,
2013-03-04 00:11:00,23.0,19.0,30.00,ENE,65,0.0,32.0,86,0.00,,,0.00,,2013-03-04 06:11:00,
2013-03-04 00:21:00,22.0,18.0,30.00,East,101,1.0,32.0,86,0.00,,,0.00,,2013-03-04 06:21:00,
2013-03-04 00:31:00,22.0,18.0,30.00,East,98,2.0,7.0,86,0.00,,,0.00,,2013-03-04 06:31:00,
2013-03-04 00:42:00,22.0,18.0,30.00,East,98,2.0,7.0,86,0.00,,,0.00,,2013-03-04 06:42:00,
2013-03-04 00:52:00,22.0,18.0,30.00,ENE,69,3.0,7.0,86,0.00,,,0.00,,2013-03-04 06:52:00,
2013-03-04 01:01:00,22.0,18.0,30.00,East,87,2.0,8.0,86,0.00,,,0.00,,2013-03-04 07:01:00,
2013-03-04 01:11:00,22.0,18.0,30.00,East,87,2.0,8.0,86,0.00,,,0.00,,2013-03-04 07:11:00,
2013-03-04 01:21:00,22.0,18.0,30.00,SSE,147,2.0,8.0,86,0.00,,,0.00,,2013-03-04 07:21:00,
2013-03-04 01:32:00,23.0,19.0,30.00,East,99,1.0,8.0,86,0.00,,,0.00,,2013-03-04 07:32:00,
2013-03-04 01:41:00,23.0,19.0,30.00,East,99,1.0,8.0,86,0.00,,,0.00,,2013-03-04 07:41:00,
2013-03-04 01:52:00,23.0,19.0,30.00,SE,139,2.0,8.0,86,0.00,,,0.00,,2013-03-04 07:52:00,
2013-03-04 02:02:00,23.0,19.0,30.00,ESE,121,1.0,8.0,86,0.00,,,0.00,,2013-03-04 08:02:00,
2013-03-04 02:11:00,23.0,19.0,30.00,ENE,69,0.0,8.0,86,0.00,,,0.00,,2013-03-04 08:11:00,
2013-03-04 02:21:00,23.0,19.0,30.00,ENE,69,0.0,8.0,86,0.00,,,0.00,,2013-03-04 08:21:00,
2013-03-04 02:32:00,23.0,19.0,30.00,East,87,1.0,8.0,86,0.00,,,0.00,,2013-03-04 08:32:00,
2013-03-04 02:41:00,23.0,19.0,30.00,East,87,1.0,8.0,86,0.00,,,0.00,,2013-03-04 08:41:00,
2013-03-04 02:52:00,23.0,19.0,30.00,SE,131,2.0,8.0,86,0.00,,,0.00,,2013-03-04 08:52:00,
2013-03-04 03:01:00,23.0,19.0,30.00,East,88,3.0,8.0,86,0.00,,,0.00,,2013-03-04 09:01:00,
2013-03-04 03:11:00,23.0,19.0,30.00,East,88,3.0,8.0,86,0.00,,,0.00,,2013-03-04 09:11:00,
2013-03-04 03:21:00,23.0,19.0,30.00,East,100,2.0,8.0,86,0.00,,,0.00,,2013-03-04 09:21:00,
2013-03-04 03:32:00,23.0,19.0,30.00,ESE,107,1.0,8.0,86,0.00,,,0.00,,2013-03-04 09:32:00,
2013-03-04 03:42:00,23.0,19.0,30.00,ESE,107,1.0,8.0,86,0.00,,,0.00,,2013-03-04 09:42:00,
2013-03-04 03:52:00,23.0,19.0,30.00,East,92,1.0,8.0,86,0.00,,,0.00,,2013-03-04 09:52:00,
2013-03-04 04:01:00,23.0,19.0,30.00,ESE,113,1.0,8.0,86,0.00,,,0.00,,2013-03-04 10:01:00,
2013-03-04 04:11:00,23.0,19.0,30.00,ESE,113,1.0,8.0,86,0.00,,,0.00,,2013-03-04 10:11:00,
2013-03-04 04:21:00,24.0,20.0,30.00,ESE,117,2.0,8.0,86,0.00,,,0.00,,2013-03-04 10:21:00,
2013-03-04 04:31:00,24.0,20.0,30.00,ESE,106,2.0,8.0,86,0.00,,,0.00,,2013-03-04 10:31:00,
2013-03-04 04:42:00,24.0,20.0,30.00,East,94,3.0,10.0,86,0.00,,,0.00,,2013-03-04 10:42:00,
2013-03-04 04:52:00,24.0,20.0,30.00,East,94,3.0,10.0,86,0.00,,,0.00,,2013-03-04 10:52:00,
2013-03-04 05:01:00,24.0,20.0,30.00,ESE,120,5.0,32.0,86,0.00,,,0.00,,2013-03-04 11:01:00,
2013-03-04 05:11:00,24.0,20.0,30.00,ESE,120,5.0,32.0,86,0.00,,,0.00,,2013-03-04 11:11:00,
2013-03-04 05:21:00,24.0,20.0,30.00,East,90,2.0,32.0,86,0.00,,,0.00,,2013-03-04 11:21:00,
2013-03-04 05:32:00,24.0,20.0,30.00,East,83,5.0,32.0,86,0.00,,,0.00,,2013-03-04 11:32:00,
2013-03-04 05:42:00,24.0,20.0,30.00,East,83,5.0,32.0,86,0.00,,,0.00,,2013-03-04 11:42:00,
2013-03-04 05:52:00,24.0,20.0,30.00,East,100,3.0,32.0,86,0.00,,,0.00,,2013-03-04 11:52:00,
2013-03-04 06:01:00,24.0,20.0,30.00,ESE,111,2.0,32.0,86,0.00,,,0.00,,2013-03-04 12:01:00,
2013-03-04 06:11:00,24.0,20.0,30.00,ESE,111,2.0,32.0,86,0.00,,,0.00,,2013-03-04 12:11:00,
2013-03-04 06:22:00,24.0,20.0,30.00,SE,127,5.0,32.0,86,0.00,,,0.00,,2013-03-04 12:22:00,
2013-03-04 06:32:00,24.0,20.0,30.00,East,99,5.0,32.0,86,0.00,,,0.00,,2013-03-04 12:32:00,
2013-03-04 06:42:00,24.0,20.0,30.00,East,99,5.0,32.0,86,0.00,,,0.00,,2013-03-04 12:42:00,
2013-03-04 06:53:00,25.0,21.0,30.00,ESE,105,3.0,32.0,86,0.00,,,0.00,,2013-03-04 12:53:00,
2013-03-04 07:02:00,25.0,21.0,30.00,East,87,3.0,32.0,86,0.00,,,0.00,,2013-03-04 13:02:00,
2013-03-04 07:11:00,25.0,21.0,30.00,East,87,3.0,32.0,86,0.00,,,0.00,,2013-03-04 13:11:00,
2013-03-04 07:21:00,25.0,21.0,30.00,East,100,5.0,32.0,86,0.00,,,0.00,,2013-03-04 13:21:00,
2013-03-04 07:32:00,26.0,22.0,30.00,East,93,5.0,32.0,86,0.00,,,0.00,,2013-03-04 13:32:00,
2013-03-04 07:41:00,26.0,22.0,30.00,East,93,5.0,32.0,86,0.00,,,0.00,,2013-03-04 13:41:00,
2013-03-04 07:52:00,26.0,22.0,30.00,East,94,3.0,32.0,86,0.00,,,0.00,,2013-03-04 13:52:00,
2013-03-04 08:01:00,26.0,22.0,30.00,East,90,2.0,32.0,86,0.00,,,0.00,,2013-03-04 14:01:00,
2013-03-04 08:11:00,26.0,22.0,30.00,East,90,2.0,32.0,86,0.00,,,0.00,,2013-03-04 14:11:00,
2013-03-04 08:22:00,26.0,22.0,30.00,East,101,7.0,32.0,86,0.00,,,0.00,,2013-03-04 14:22:00,
2013-03-04 08:32:00,27.0,23.0,30.00,East,79,2.0,32.0,86,0.00,,,0.00,,2013-03-04 14:32:00,
2013-03-04 08:42:00,27.0,23.0,30.00,East,79,2.0,32.0,86,0.00,,,0.00,,2013-03-04 14:42:00,
2013-03-04 08:52:00,27.0,23.0,30.00,East,97,3.0,32.0,86,0.00,,,0.00,,2013-03-04 14:52:00,
2013-03-04 09:01:00,27.0,23.0,30.00,East,99,5.0,32.0,86,0.00,,,0.00,,2013-03-04 15:01:00,
2013-03-04 09:11:00,27.0,23.0,30.00,East,99,5.0,32.0,86,0.00,,,0.00,,2013-03-04 15:11:00,
2013-03-04 09:21:00,27.0,23.0,30.00,ENE,58,2.0,32.0,86,0.00,,,0.00,,2013-03-04 15:21:00,
2013-03-04 09:32:00,28.0,24.0,30.00,ESE,113,6.0,32.0,86,0.00,,,0.00,,2013-03-04 15:32:00,
2013-03-04 09:42:00,28.0,24.0,30.00,ESE,113,6.0,32.0,86,0.00,,,0.00,,2013-03-04 15:42:00,
2013-03-04 09:52:00,29.0,25.0,30.00,East,99,5.0,32.0,86,0.00,,,0.00,,2013-03-04 15:52:00,
2013-03-04 10:02:00,29.0,25.0,30.00,East,88,6.0,32.0,86,0.00,,,0.00,,2013-03-04 16:02:00,
2013-03-04 10:11:00,29.0,25.0,30.00,East,88,6.0,32.0,86,0.00,,,0.00,,2013-03-04 16:11:00,
2013-03-04 10:21:00,29.0,25.0,30.00,East,96,6.0,32.0,86,0.00,,,0.00,,2013-03-04 16:21:00,
2013-03-04 10:31:00,30.0,26.0,30.00,East,100,7.0,32.0,86,0.00,,,0.00,,2013-03-04 16:31:00,
2013-03-04 10:42:00,30.0,26.0,30.00,East,100,7.0,32.0,86,0.00,,,0.00,,2013-03-04 16:42:00,
2013-03-04 10:52:00,30.0,26.0,30.00,East,86,6.0,32.0,86,0.00,,,0.00,,2013-03-04 16:52:00,
2013-03-04 11:02:00,31.0,27.0,30.00,East,91,7.0,32.0,86,0.00,,,0.00,,2013-03-04 17:02:00,
2013-03-04 11:11:00,31.0,27.0,30.00,East,91,7.0,32.0,86,0.00,,,0.00,,2013-03-04 17:11:00,
2013-03-04 11:22:00,32.0,28.0,30.00,ENE,73,7.0,32.0,86,0.00,,,0.00,,2013-03-04 17:22:00,
2013-03-04 11:32:00,32.0,28.0,30.00,East,100,9.0,32.0,86,0.00,,,0.00,,2013-03-04 17:32:00,
2013-03-04 11:42:00,32.0,28.0,30.00,East,100,9.0,32.0,86,0.00,,,0.00,,2013-03-04 17:42:00,
2013-03-04 11:52:00,33.0,29.0,30.00,East,91,8.0,32.0,86,0.00,,,0.00,,2013-03-04 17:52:00,
2013-03-04 12:01:00,33.0,29.0,30.00,East,88,7.0,32.0,86,0.00,,,0.00,,2013-03-04 18:01:00,
2013-03-04 12:11:00,33.0,29.0,30.00,East,88,7.0,32.0,86,0.00,,,0.00,,2013-03-04 18:11:00,
2013-03-04 12:21:00,35.0,31.0,30.00,East,88,9.0,32.0,86,0.00,,,0.00,,2013-03-04 18:21:00,
2013-03-04 12:32:00,35.0,31.0,30.00,East,83,6.0,32.0,86,0.00,,,0.00,,2013-03-04 18:32:00,
2013-03-04 12:42:00,35.0,31.0,30.00,East,83,6.0,32.0,86,0.00,,,0.00,,2013-03-04 18:42:00,
2013-03-04 12:52:00,34.0,30.0,30.00,East,79,8.0,32.0,86,0.00,,,0.00,,2013-03-04 18:52:00,
2013-03-04 13:01:00,34.0,30.0,30.00,East,91,7.0,32.0,86,0.00,,,0.00,,2013-03-04 19:01:00,
2013-03-04 13:11:00,34.0,30.0,30.00,East,91,7.0,32.0,86,0.00,,,0.00,,2013-03-04 19:11:00,
2013-03-04 13:21:00,33.0,29.0,30.00,East,88,8.0,32.0,86,0.00,,,0.00,,2013-03-04 19:21:00,
2013-03-04 13:32:00,35.0,31.0,30.00,East,84,8.0,32.0,86,0.00,,,0.00,,2013-03-04 19:32:00,
2013-03-04 13:42:00,35.0,31.0,30.00,East,84,8.0,32.0,86,0.00,,,0.00,,2013-03-04 19:42:00,
2013-03-04 13:52:00,34.0,30.0,30.00,East,89,9.0,32.0,86,0.00,,,0.00,,2013-03-04 19:52:00,
2013-03-04 14:01:00,35.0,31.0,30.00,ENE,73,7.0,32.0,86,0.00,,,0.00,,2013-03-04 20:01:00,
2013-03-04 14:11:00,36.0,32.0,30.00,East,87,9.0,32.0,86,0.00,,,0.00,,2013-03-04 20:11:00,
2013-03-04 14:22:00,36.0,32.0,30.00,East,87,9.0,32.0,86,0.00,,,0.00,,2013-03-04 20:22:00,
2013-03-04 14:32:00,36.0,32.0,30.00,East,80,8.0,32.0,86,0.00,,,0.00,,2013-03-04 20:32:00,
2013-03-04 14:42:00,36.0,32.0,30.00,East,80,8.0,32.0,86,0.00,,,0.00,,2013-03-04 20:42:00,
2013-03-04 14:52:00,35.0,31.0,30.00,East,88,9.0,32.0,86,0.00,,,0.00,,2013-03-04 20:52:00,
2013-03-04 15:02:00,35.0,31.0,30.00,East,89,8.0,32.0,86,0.00,,,0.00,,2013-03-04 21:02:00,
2013-03-04 15:11:00,35.0,31.0,30.00,East,89,8.0,32.0,86,0.00,,,0.00,,2013-03-04 21:11:00,
2013-03-04 15:22:00,34.0,30.0,30.00,East,89,10.0,32.0,86,0.00,,,0.00,,2013-03-04 21:22:00,
2013-03-04 15:32:00,35.0,31.0,30.00,East,86,8.0,32.0,86,0.00,,,0.00,,2013-03-04 21:32:00,
2013-03-04 15:42:00,35.0,31.0,30.00,East,86,8.0,32.0,86,0.00,,,0.00,,2013-03-04 21:42:00,
2013-03-04 15:52:00,35.0,31.0,30.00,ENE,66,7.0,32.0,86,0.00,,,0.00,,2013-03-04 21:52:00,
2013-03-04 16:02:00,34.0,30.0,30.00,ENE,74,6.0,32.0,86,0.00,,,0.00,,2013-03-04 22:02:00,
2013-03-04 16:12:00,34.0,30.0,30.00,ENE,74,6.0,32.0,86,0.00,,,0.00,,2013-03-04 22:12:00,
2013-03-04 16:22:00,34.0,30.0,30.00,East,88,6.0,32.0,86,0.00,,,0.00,,2013-03-04 22:22:00,
2013-03-04 16:32:00,33.0,29.0,30.00,East,79,5.0,32.0,86,0.00,,,0.00,,2013-03-04 22:32:00,
2013-03-04 16:42:00,33.0,29.0,30.00,East,79,5.0,32.0,86,0.00,,,0.00,,2013-03-04 22:42:00,
2013-03-04 16:52:00,33.0,29.0,30.00,ENE,65,7.0,32.0,86,0.00,,,0.00,,2013-03-04 22:52:00,
2013-03-04 17:01:00,31.0,27.0,30.00,ENE,68,7.0,32.0,86,0.00,,,0.00,,2013-03-04 23:01:00,
2013-03-04 17:11:00,31.0,27.0,30.00,ENE,68,7.0,32.0,86,0.00,,,0.00,,2013-03-04 23:11:00,
2013-03-04 17:22:00,31.0,27.0,30.00,East,92,7.0,32.0,86,0.00,,,0.00,,2013-03-04 23:22:00,
2013-03-04 17:32:00,31.0,27.0,30.00,East,81,5.0,32.0,86,0.00,,,0.00,,2013-03-04 23:32:00,
2013-03-04 17:42:00,31.0,27.0,30.00,East,81,5.0,32.0,86,0.00,,,0.00,,2013-03-04 23:42:00,
2013-03-04 17:52:00,30.0,26.0,30.00,East,87,6.0,32.0,86,0.00,,,0.00,,2013-03-04 23:52:00,
2013-03-04 18:01:00,30.0,26.0,30.00,ENE,75,3.0,32.0,86,0.00,,,0.00,,2013-03-05 00:01:00,
2013-03-04 18:11:00,30.0,26.0,30.00,ENE,75,3.0,32.0,86,0.00,,,0.00,,2013-03-05 00:11:00,
2013-03-04 18:21:00,30.0,26.0,30.00,East,81,3.0,32.0,86,0.00,,,0.00,,2013-03-05 00:21:00,
2013-03-04 18:32:00,30.0,26.0,30.00,East,84,3.0,32.0,86,0.00,,,0.00,,2013-03-05 00:32:00,
2013-03-04 18:42:00,30.0,26.0,30.00,East,84,3.0,32.0,86,0.00,,,0.00,,2013-03-05 00:42:00,
2013-03-04 18:52:00,30.0,26.0,30.00,ENE,74,5.0,32.0,86,0.00,,,0.00,,2013-03-05 00:52:00,
2013-03-04 19:01:00,30.0,26.0,30.00,ENE,78,3.0,32.0,86,0.00,,,0.00,,2013-03-05 01:01:00,
2013-03-04 19:12:00,30.0,26.0,30.00,ENE,78,3.0,32.0,86,0.00,,,0.00,,2013-03-05 01:12:00,
2013-03-04 19:21:00,30.0,26.0,30.00,ENE,75,3.0,32.0,86,0.00,,,0.00,,2013-03-05 01:21:00,
2013-03-04 19:32:00,30.0,26.0,30.00,East,81,6.0,32.0,86,0.00,,,0.00,,2013-03-05 01:32:00,
2013-03-04 19:41:00,30.0,26.0,30.00,East,81,6.0,32.0,86,0.00,,,0.00,,2013-03-05 01:41:00,
2013-03-04 19:52:00,30.0,26.0,30.00,ENE,74,5.0,32.0,86,0.00,,,0.00,,2013-03-05 01:52:00,
2013-03-04 20:01:00,30.0,26.0,30.00,ENE,57,3.0,32.0,86,0.00,,,0.00,,2013-03-05 02:01:00,
2013-03-04 20:11:00,30.0,26.0,30.00,ENE,57,3.0,32.0,86,0.00,,,0.00,,2013-03-05 02:11:00,
2013-03-04 20:21:00,30.0,26.0,30.00,ENE,57,6.0,32.0,86,0.00,,,0.00,,2013-03-05 02:21:00,
2013-03-04 20:32:00,30.0,26.0,30.00,ENE,77,3.0,32.0,86,0.00,,,0.00,,2013-03-05 02:32:00,
2013-03-04 20:42:00,30.0,26.0,30.00,ENE,77,3.0,32.0,86,0.00,,,0.00,,2013-03-05 02:42:00,
2013-03-04 20:52:00,31.0,27.0,30.00,ENE,63,3.0,32.0,86,0.00,,,0.00,,2013-03-05 02:52:00,
2013-03-04 21:02:00,31.0,27.0,30.00,ENE,71,5.0,32.0,86,0.00,,,0.00,,2013-03-05 03:02:00,
2013-03-04 21:12:00,31.0,27.0,30.00,ENE,74,5.0,32.0,86,0.00,,,0.00,,2013-03-05 03:12:00,
2013-03-04 21:22:00,31.0,27.0,30.00,ENE,74,5.0,32.0,86,0.00,,,0.00,,2013-03-05 03:22:00,
2013-03-04 21:32:00,31.0,27.0,30.00,ENE,58,3.0,32.0,86,0.00,,,0.00,,2013-03-05 03:32:00,
2013-03-04 21:42:00,31.0,27.0,30.00,ENE,58,3.0,32.0,86,0.00,,,0.00,,2013-03-05 03:42:00,
2013-03-04 21:52:00,31.0,27.0,30.00,East,81,6.0,32.0,86,0.00,,,0.00,,2013-03-05 03:52:00,
2013-03-04 22:01:00,31.0,27.0,30.00,ENE,71,3.0,32.0,86,0.00,,,0.00,,2013-03-05 04:01:00,
2013-03-04 22:11:00,31.0,27.0,30.00,ENE,71,3.0,32.0,86,0.00,,,0.00,,2013-03-05 04:11:00,
2013-03-04 22:22:00,31.0,27.0,30.00,ENE,77,6.0,32.0,86,0.00,,,0.00,,2013-03-05 04:22:00,
2013-03-04 22:32:00,31.0,27.0,30.00,East,92,6.0,32.0,86,0.00,,,0.00,,2013-03-05 04:32:00,
2013-03-04 22:42:00,31.0,27.0,30.00,East,92,6.0,32.0,86,0.00,,,0.00,,2013-03-05 04:42:00,
2013-03-04 22:52:00,31.0,27.0,30.00,ENE,59,3.0,32.0,86,0.00,,,0.00,,2013-03-05 04:52:00,
2013-03-04 23:02:00,31.0,27.0,30.00,East,95,3.0,32.0,86,0.00,,,0.00,,2013-03-05 05:02:00,
2013-03-04 23:11:00,31.0,27.0,30.00,East,95,3.0,32.0,86,0.00,,,0.00,,2013-03-05 05:11:00,
2013-03-04 23:22:00,31.0,27.0,30.00,ENE,73,5.0,32.0,86,0.00,,,0.00,,2013-03-05 05:22:00,
2013-03-04 23:31:00,31.0,27.0,30.00,East,88,5.0,32.0,86,0.00,,,0.00,,2013-03-05 05:31:00,
2013-03-04 23:42:00,31.0,27.0,30.00,East,88,5.0,32.0,86,0.00,,,0.00,,2013-03-05 05:42:00,
2013-03-04 23:52:00,31.0,27.0,30.00,ENE,67,6.0,32.0,86,0.00,,,0.00,,2013-03-05 05:52:00,